Home   Weather   Ennepetal   Past weeks

Flag for Germany Past Weather in Ennepetal, North Rhine-Westphalia, Germany — Yesterday and Last 2 Weeks

Now
25 °F

Low clouds.


Feels Like: 17 °F
Forecast: 15 / 27 °F
Wind: 7 mph from East

Location: Dortmund / Wickede

Current Time: Jan 17, 2017 at 6:31:53 pm

Latest Report: Jan 17, 2017 at 5:50 pm


Visibility: 4 mi

Pressure: 30.63 "Hg

Humidity: 86%

Dew Point: 21 °F

Location of EnnepetalLocation

Past Weather in Ennepetal — Graph

°F

Ennepetal Temperature Yesterday

Maximum temperature yesterday: 32 °F (at 12:50 pm)
Minimum temperature yesterday: 25 °F (at 8:20 pm)
Average temperature yesterday: 29 °F

High & Low Weather Summary for the Past Weeks

 TemperatureHumidityPressure
High43 °F (Jan 11, 2:20 pm)100% (Jan 8, 6:20 am)30.72 "Hg (Jan 8, 6:20 am)
Low16 °F (Jan 6, 5:20 am)54% (Jan 6, 3:50 pm)29.06 "Hg (Jan 13, 5:20 am)
Average32 °F82%30.10 "Hg
* Reported Jan 2 5:20 pm — Jan 17 5:20 pm, Ennepetal, Weather by CustomWeather, © 2017

Note: Actual official high and low records may vary slightly from our data, if they occured in-between our weather recording intervals... More about our weather records

Advertising

Ennepetal Weather History for the Previous 24 Hours

Scroll right to see more
 ConditionsComfort  
Time TempWeatherWind HumidityBarometerVisibility
5:20 pm
Tue, Jan 17
25 °FLow clouds.7 mph86%30.63 "Hg4 mi
4:50 pm25 °FIce fog.6 mph86%30.63 "Hg2 mi
4:20 pm23 °FIce fog.7 mph93%30.63 "Hg1 mi
3:50 pm23 °FIce fog.7 mph93%30.63 "Hg1 mi
3:20 pm23 °FIce fog.6 mph93%30.63 "Hg1 mi
2:50 pm23 °FIce fog.5 mph93%30.63 "Hg1 mi
2:20 pm23 °FLight snow. Ice fog.3 mph93%30.63 "Hg2 mi
1:50 pm25 °FIce fog.5 mph86%30.63 "Hg2 mi
1:20 pm25 °FIce fog.5 mph86%30.63 "Hg3 mi
12:50 pm25 °FIce fog.5 mph86%30.63 "Hg3 mi
12:20 pm25 °FPartly sunny.3 mph86%30.63 "Hg4 mi
11:50 am25 °FIce fog.3 mph86%30.63 "Hg3 mi
11:20 am25 °FPartly sunny.3 mph86%30.63 "Hg4 mi
10:50 am25 °FScattered clouds.3 mph86%30.60 "HgN/A
10:20 am25 °FScattered clouds.2 mph86%30.60 "HgN/A
9:50 am23 °FSunny.2 mph93%30.60 "Hg10 mi
9:20 am23 °FSunny.1 mph86%30.60 "Hg10 mi
8:50 am21 °FPassing clouds.2 mph93%30.60 "HgN/A
8:20 am21 °FPassing clouds.3 mph93%30.57 "HgN/A
7:50 am23 °FClear.2 mph86%30.57 "Hg10 mi
7:20 am23 °FClear.2 mph86%30.54 "Hg10 mi
6:50 am23 °FClear.3 mph86%30.54 "Hg10 mi
6:20 am23 °FPassing clouds.5 mph80%30.54 "HgN/A
5:50 am23 °FPassing clouds.5 mph80%30.54 "HgN/A
5:20 am27 °FPassing clouds.5 mph74%30.54 "HgN/A
9:50 pm
Mon, Jan 16
27 °FOvercast.6 mph80%30.45 "Hg4 mi
9:20 pm27 °FOvercast.5 mph80%30.45 "Hg4 mi
8:50 pm27 °FOvercast.5 mph86%30.42 "Hg4 mi
8:20 pm25 °FOvercast.6 mph86%30.42 "Hg4 mi
7:50 pm27 °FLow clouds.7 mph86%30.39 "Hg4 mi
7:20 pm27 °FPassing clouds.6 mph86%30.39 "Hg4 mi
6:50 pm27 °FIce fog.8 mph86%30.39 "Hg2 mi
6:20 pm27 °FPassing clouds.8 mph86%30.39 "Hg4 mi
Weather by CustomWeather, © 2017

See weather overviewHow to use our weather pages